Tracking 21155 objects as of 15-Aug-2020
HD Live streaming from Space Station
objects crossing your sky now

SPACEBEE-6

Track SPACEBEE-6 now!
10-day predictions


NORAD ID: 43818
Int'l Code: 2018-099BN
Perigee: 577.7 km
Apogee: 595.4 km
Inclination: 97.7 °
Period: 96.3 minutes
Semi major axis: 6957 km
RCS: Unknown
Launch date: December 3, 2018
Source: United States (US)
Launch site: AIR FORCE WESTERN TEST RANGE (AFWTR)
aabbcc
Your satellite tracking list
Your tracking list is empty




NASA's NSSDC Master Catalog

Two Line Element Set (TLE):
1 43818U 18099BN  20228.42442222 +.00000740 +00000-0 +71140-4 0  9995
2 43818 097.7063 299.6149 0012714 349.1570 010.9376 14.95945410092461
Source of the keplerian elements: AFSPC